#timestamp,LO_Frequency,Hit 
1503702015.9,286047022.5,P
1503702035.7,286047004.0,N
1503702055.6,286046998.2,N
1503702075.4,286046997.6,N
1503702095.2,286046992.6,N
1503702115.1,286046991.2,N
1503702116.0,286046991.2,N
1503702135.8,286046985.1,N
1503702155.6,286046977.8,N
1503702175.5,286046973.6,N
1503702195.3,286046971.7,N
1503702215.1,286046979.8,N
1503702235.9,286046981.9,N
1503702255.7,286046977.1,N
1503702275.5,286046974.0,N
1503702295.3,286046968.4,N
1503702315.2,286046966.2,N
1503702335.0,286046964.6,N
1503702335.9,286046964.6,N
1503702355.7,286046968.7,N
1503702375.6,286046966.8,N
1503702395.4,286046964.8,N
1503702415.2,286046964.1,N
1503702435.1,286046961.4,N
1503702436.0,286046961.4,N
1503702455.8,286046960.0,N
1503702475.6,286046960.7,N
1503702495.5,286046956.2,N
1503702515.3,286046950.2,N
1503702535.1,286046949.2,N
1503702555.9,286046947.0,P
1503702575.7,286046972.8,N
1503702595.5,286046969.6,N
1503702615.4,286046972.9,N
1503702635.2,286046981.0,N
1503702655.0,286046985.3,N
1503702655.9,286046985.3,N
1503702675.8,286046993.1,N
1503702695.6,286046991.5,N
1503702715.4,286046991.3,N
1503702735.2,286046992.1,N
1503702755.1,286046990.6,N
1503702756.0,286046990.6,N
1503702775.8,286046989.1,N
1503702795.6,286046989.1,N
1503702815.5,286046985.7,N
1503702835.3,286046985.3,N
1503702855.1,286046990.9,N
1503702875.9,286046993.9,N
1503702895.7,286046997.6,N
1503702915.5,286046997.6,N
1503702935.4,286046995.5,N
1503702955.2,286046996.9,N
1503702975.0,286047002.1,N
1503702975.9,286047002.1,N
1503702995.8,286046998.2,N
1503703015.6,286046993.9,N
1503703035.4,286046989.4,N
1503703055.2,286046988.0,N
1503703075.1,286046984.2,N
1503703076.0,286046984.2,N
1503703095.8,286046987.4,N
1503703115.6,286046991.2,N
1503703135.5,286046992.5,N
1503703155.3,286046992.8,N
1503703175.1,286046993.5,N
1503703195.9,286046997.2,N
1503703215.7,286046996.5,N
1503703235.5,286046999.0,N
1503703255.4,286046998.4,N
1503703275.2,286046997.1,N
1503703295.0,286046997.6,N
1503703295.9,286046997.6,N
1503703315.8,286046995.4,N
1503703335.6,286046994.1,N
1503703355.4,286046994.4,N
1503703375.3,286047004.4,N
1503703395.1,286047005.5,N
1503703396.0,286047005.5,N
1503703415.8,286047009.1,N
1503703435.7,286047010.5,N
1503703455.5,286047012.0,N
1503703475.3,286047015.5,N
1503703495.1,286047015.9,N
1503703515.9,286047019.7,N
1503703535.7,286047018.9,N
1503703555.5,286047016.0,N
1503703575.4,286047014.7,N
1503703595.2,286047015.1,N
1503703615.0,286047014.8,N
1503703615.9,286047014.8,N
1503703635.8,286047013.0,N
1503703655.6,286047011.1,N
1503703675.4,286047011.7,N
1503703695.3,286047008.9,N
1503703715.1,286047006.8,N
1503703716.0,286047006.8,N
1503703735.8,286047007.6,N
1503703755.7,286047009.0,N
1503703775.5,286047015.3,N
1503703795.3,286047009.8,N
1503703815.2,286047011.5,N
1503703835.9,286047009.6,N
1503703855.7,286047010.6,N
1503703875.5,286047009.0,N
1503703895.4,286047005.2,N
1503703915.2,286047001.0,N
1503703935.0,286046992.4,N
1503703935.9,286046992.4,N
1503703955.8,286046983.8,N
1503703975.6,286046975.9,P
1503703995.4,286046961.8,N
1503704015.3,286046959.5,N
1503704035.1,286046956.9,N
1503704055.8,286046955.6,N
1503704075.7,286046955.6,N
1503704095.5,286046958.6,N
1503704115.3,286046960.0,N
1503704135.2,286046961.8,N
1503704155.9,286046965.6,N
1503704175.7,286046966.5,N
1503704195.6,286046970.5,N
1503704215.4,286046973.1,N
1503704235.2,286046974.4,N
1503704255.0,286046974.6,N
1503704256.0,286046974.6,N
1503704275.8,286046981.3,N
1503704295.6,286046985.0,N
1503704315.4,286046982.7,N
1503704335.3,286046982.8,N
1503704355.1,286046984.8,N
1503704375.8,286046992.7,N
1503704395.7,286046998.1,N
1503704415.5,286047012.3,N
1503704435.3,286047020.0,N
1503704455.2,286047021.8,N
1503704475.9,286047023.0,N
1503704495.7,286047022.9,N
1503704515.6,286047022.2,N
1503704535.4,286047020.0,N
1503704555.2,286047021.8,N
1503704575.0,286047020.7,N
1503704575.9,286047020.7,N
1503704595.8,286047017.3,N
1503704615.6,286047023.6,N
1503704635.4,286047019.6,N
1503704655.3,286047020.4,N
1503704675.1,286047030.0,N
1503704676.0,286047030.0,N
1503704695.8,286047030.7,N
1503704715.7,286047035.2,N
1503704735.5,286047040.1,N
1503704755.3,286047044.0,N
1503704775.2,286047044.1,N
1503704795.9,286047052.3,N
1503704815.7,286047053.9,N
1503704835.5,286047052.6,N
1503704855.4,286047053.4,N
1503704875.2,286047057.4,N
1503704895.1,286047062.0,P
1503704896.0,286047062.0,P
1503704915.8,286047032.1,N
1503704935.6,286047026.6,N
1503704955.5,286047029.6,N
1503704975.3,286047033.6,N
1503704995.1,286047031.3,N
1503705015.8,286047028.2,N
1503705035.7,286047023.8,N
1503705055.5,286047029.3,N
1503705075.3,286047035.4,N
1503705095.2,286047034.0,N
1503705115.9,286047029.0,N
1503705135.7,286047026.1,N
1503705155.6,286047026.2,N
1503705175.4,286047022.9,N
1503705195.2,286047024.9,N
1503705215.1,286047024.1,N
1503705216.0,286047024.1,N
1503705235.8,286047025.8,N
1503705255.6,286047033.5,P
1503705275.5,286047013.2,P
1503705295.3,286047014.6,N
1503705315.1,286047013.8,N
1503705335.9,286047012.6,N
1503705355.7,286047013.4,N
1503705375.5,286047010.3,N
1503705395.3,286047001.7,N
1503705415.2,286046999.0,N
1503705435.9,286047001.8,N
1503705455.7,286047007.9,N
1503705475.6,286047013.9,N
1503705495.4,286047028.4,N
1503705515.2,286047030.4,N
1503705535.1,286047032.2,P
1503705536.0,286047032.2,P
1503705555.8,286047019.4,N
1503705575.6,286047021.3,N
1503705595.5,286047022.4,P
